Time,TemperatureF,DewpointF,PressureIn,WindDirection,WindDirectionDegrees,WindSpeedMPH,WindSpeedGustMPH,Humidity,HourlyPrecipIn,Conditions,Clouds,dailyrainin,SoftwareType,DateUTC
2013-04-07 00:02:00,62.1,57.9,30.01,East,81,0.0,0.0,86,0.00,,---,0.00,VWS V14.01,2013-04-07 04:02:00,
2013-04-07 00:05:00,62.0,58.1,30.01,East,81,0.0,0.0,87,0.00,,---,0.00,VWS V14.01,2013-04-07 04:05:00,
2013-04-07 00:06:00,62.0,58.1,30.01,East,81,0.0,0.0,87,0.00,,---,0.00,VWS V14.01,2013-04-07 04:06:00,
2013-04-07 00:07:00,62.0,58.1,30.01,East,81,0.0,0.0,87,0.00,,---,0.00,VWS V14.01,2013-04-07 04:07:00,
2013-04-07 00:08:00,62.0,58.1,30.01,East,81,0.0,0.0,87,0.00,,---,0.00,VWS V14.01,2013-04-07 04:08:00,
2013-04-07 00:11:00,62.0,58.1,30.01,East,81,0.0,0.0,87,0.00,,---,0.00,VWS V14.01,2013-04-07 04:11:00,
2013-04-07 00:14:00,62.0,58.1,30.01,East,81,0.0,0.0,87,0.00,,---,0.00,VWS V14.01,2013-04-07 04:14:00,
2013-04-07 00:15:00,62.0,58.1,30.01,East,81,0.0,0.0,87,0.00,,---,0.00,VWS V14.01,2013-04-07 04:15:00,
2013-04-07 00:16:00,62.0,58.1,30.01,East,81,0.0,0.0,87,0.00,,---,0.00,VWS V14.01,2013-04-07 04:16:00,
2013-04-07 00:17:00,61.8,57.9,30.01,East,81,0.0,0.0,87,0.00,,---,0.00,VWS V14.01,2013-04-07 04:17:00,
2013-04-07 00:19:00,61.8,57.9,30.01,East,81,0.0,0.0,87,0.00,,---,0.00,VWS V14.01,2013-04-07 04:19:00,
2013-04-07 00:20:00,61.8,57.9,30.01,East,81,0.0,0.0,87,0.00,,---,0.00,VWS V14.01,2013-04-07 04:20:00,
2013-04-07 00:27:00,62.0,58.1,30.01,East,81,0.0,0.0,87,0.00,,---,0.00,VWS V14.01,2013-04-07 04:27:00,
2013-04-07 00:34:00,61.8,58.2,30.00,East,81,0.0,0.0,88,0.00,,---,0.00,VWS V14.01,2013-04-07 04:34:00,
2013-04-07 00:47:00,61.5,57.9,30.00,East,81,0.0,0.0,88,0.00,,---,0.00,VWS V14.01,2013-04-07 04:47:00,
2013-04-07 00:53:00,61.5,58.2,29.99,East,81,0.0,6.0,89,0.00,,---,0.00,VWS V14.01,2013-04-07 04:53:00,
2013-04-07 01:02:00,61.5,58.2,29.99,East,81,0.0,0.0,89,0.00,,---,0.00,VWS V14.01,2013-04-07 05:02:00,
2013-04-07 01:08:00,61.3,58.0,29.99,East,81,0.0,0.0,89,0.00,,---,0.00,VWS V14.01,2013-04-07 05:08:00,
2013-04-07 01:09:00,62.0,58.1,30.01,East,81,0.0,0.0,87,0.00,,---,0.00,VWS V14.01,2013-04-07 05:09:00,
2013-04-07 01:12:00,61.3,58.0,29.99,East,81,0.0,0.0,89,0.00,,---,0.00,VWS V14.01,2013-04-07 05:12:00,
2013-04-07 01:15:00,61.8,57.9,30.01,East,81,0.0,0.0,87,0.00,,---,0.00,VWS V14.01,2013-04-07 05:15:00,
2013-04-07 01:18:00,61.2,58.2,29.99,East,81,0.0,0.0,90,0.00,,---,0.00,VWS V14.01,2013-04-07 05:18:00,
2013-04-07 01:26:00,61.8,58.2,30.01,East,81,0.0,0.0,88,0.00,,---,0.00,VWS V14.01,2013-04-07 05:26:00,
2013-04-07 01:27:00,62.0,58.4,30.01,East,81,0.0,0.0,88,0.00,,---,0.00,VWS V14.01,2013-04-07 05:27:00,
2013-04-07 01:32:00,61.8,58.2,30.01,East,81,0.0,0.0,88,0.00,,---,0.00,VWS V14.01,2013-04-07 05:32:00,
2013-04-07 01:35:00,61.8,58.2,30.01,East,81,0.0,0.0,88,0.00,,---,0.00,VWS V14.01,2013-04-07 05:35:00,
2013-04-07 01:38:00,61.8,58.2,30.00,East,81,0.0,0.0,88,0.00,,---,0.00,VWS V14.01,2013-04-07 05:38:00,
2013-04-07 01:40:00,61.6,58.0,30.00,East,81,0.0,0.0,88,0.00,,---,0.00,VWS V14.01,2013-04-07 05:40:00,
2013-04-07 01:42:00,61.6,58.0,30.00,East,81,0.0,0.0,88,0.00,,---,0.00,VWS V14.01,2013-04-07 05:42:00,
2013-04-07 01:44:00,61.6,58.0,30.00,East,81,0.0,0.0,88,0.00,,---,0.00,VWS V14.01,2013-04-07 05:44:00,
2013-04-07 01:45:00,61.5,57.9,30.00,East,81,0.0,0.0,88,0.00,,---,0.00,VWS V14.01,2013-04-07 05:45:00,
2013-04-07 01:52:00,61.5,58.2,29.99,East,81,0.0,0.0,89,0.00,,---,0.00,VWS V14.01,2013-04-07 05:52:00,
2013-04-07 01:54:00,61.5,58.2,29.99,East,81,0.0,6.0,89,0.00,,---,0.00,VWS V14.01,2013-04-07 05:54:00,
2013-04-07 01:59:00,61.5,58.2,29.99,East,81,0.0,6.0,89,0.00,,---,0.00,VWS V14.01,2013-04-07 05:59:00,
2013-04-07 02:03:00,61.5,58.2,29.99,East,81,0.0,6.0,89,0.00,,---,0.00,VWS V14.01,2013-04-07 06:03:00,
2013-04-07 02:04:00,61.5,58.2,29.99,East,81,0.0,6.0,89,0.00,,---,0.00,VWS V14.01,2013-04-07 06:04:00,
2013-04-07 02:06:00,61.5,58.2,29.99,East,81,0.0,0.0,89,0.00,,---,0.00,VWS V14.01,2013-04-07 06:06:00,
2013-04-07 02:08:00,61.3,58.0,29.99,East,81,0.0,0.0,89,0.00,,---,0.00,VWS V14.01,2013-04-07 06:08:00,
2013-04-07 02:13:00,61.3,58.0,29.99,East,81,0.0,0.0,89,0.00,,---,0.00,VWS V14.01,2013-04-07 06:13:00,
2013-04-07 02:14:00,61.3,58.0,29.99,East,81,0.0,0.0,89,0.00,,---,0.00,VWS V14.01,2013-04-07 06:14:00,
2013-04-07 02:15:00,61.3,58.0,29.99,East,81,0.0,0.0,89,0.00,,---,0.00,VWS V14.01,2013-04-07 06:15:00,
2013-04-07 02:18:00,61.3,58.0,29.99,East,81,0.0,0.0,89,0.00,,---,0.00,VWS V14.01,2013-04-07 06:18:00,
2013-04-07 02:20:00,61.3,58.0,29.99,East,81,0.0,0.0,89,0.00,,---,0.00,VWS V14.01,2013-04-07 06:20:00,
2013-04-07 02:23:00,61.2,58.2,29.99,East,81,0.0,0.0,90,0.00,,---,0.00,VWS V14.01,2013-04-07 06:23:00,
2013-04-07 02:25:00,61.2,58.2,29.99,East,81,0.0,0.0,90,0.00,,---,0.00,VWS V14.01,2013-04-07 06:25:00,
2013-04-07 02:27:00,61.0,58.0,29.99,East,81,0.0,0.0,90,0.00,,---,0.00,VWS V14.01,2013-04-07 06:27:00,
2013-04-07 02:32:00,60.9,58.0,29.99,East,81,0.0,0.0,90,0.00,,---,0.00,VWS V14.01,2013-04-07 06:32:00,
2013-04-07 02:33:00,60.9,58.0,29.99,East,81,0.0,0.0,90,0.00,,---,0.00,VWS V14.01,2013-04-07 06:33:00,
2013-04-07 02:40:00,60.4,57.5,29.99,East,81,0.0,0.0,90,0.00,,---,0.00,VWS V14.01,2013-04-07 06:40:00,
2013-04-07 02:41:00,60.4,57.5,29.99,East,81,0.0,0.0,90,0.00,,---,0.00,VWS V14.01,2013-04-07 06:41:00,
2013-04-07 02:42:00,60.4,57.5,29.99,East,81,0.0,0.0,90,0.00,,---,0.00,VWS V14.01,2013-04-07 06:42:00,
2013-04-07 02:46:00,60.1,57.5,29.99,East,81,0.0,0.0,91,0.00,,---,0.00,VWS V14.01,2013-04-07 06:46:00,
2013-04-07 02:47:00,60.1,57.5,29.99,East,81,0.0,0.0,91,0.00,,---,0.00,VWS V14.01,2013-04-07 06:47:00,
2013-04-07 02:50:00,60.1,57.5,29.98,East,81,0.0,0.0,91,0.00,,---,0.00,VWS V14.01,2013-04-07 06:50:00,
2013-04-07 02:51:00,59.9,57.3,29.98,East,81,0.0,0.0,91,0.00,,---,0.00,VWS V14.01,2013-04-07 06:51:00,
2013-04-07 02:56:00,59.6,57.0,29.98,East,81,0.0,0.0,91,0.00,,---,0.00,VWS V14.01,2013-04-07 06:56:00,
2013-04-07 02:58:00,59.6,57.0,29.98,East,81,0.0,0.0,91,0.00,,---,0.00,VWS V14.01,2013-04-07 06:58:00,
2013-04-07 03:04:00,59.5,56.9,29.98,East,81,0.0,0.0,91,0.00,,---,0.00,VWS V14.01,2013-04-07 07:04:00,
2013-04-07 03:07:00,59.5,57.2,29.98,East,81,0.0,0.0,92,0.00,,---,0.00,VWS V14.01,2013-04-07 07:07:00,
2013-04-07 03:12:00,59.5,57.2,29.98,East,81,0.0,0.0,92,0.00,,---,0.00,VWS V14.01,2013-04-07 07:12:00,
2013-04-07 03:15:00,59.5,57.2,29.98,East,81,0.0,0.0,92,0.00,,---,0.00,VWS V14.01,2013-04-07 07:15:00,
2013-04-07 03:17:00,59.5,57.2,29.98,East,81,0.0,0.0,92,0.00,,---,0.00,VWS V14.01,2013-04-07 07:17:00,
2013-04-07 03:20:00,59.5,57.5,29.97,East,81,0.0,0.0,93,0.00,,---,0.00,VWS V14.01,2013-04-07 07:20:00,
2013-04-07 03:22:00,59.5,57.5,29.97,East,81,0.0,0.0,93,0.00,,---,0.00,VWS V14.01,2013-04-07 07:22:00,
2013-04-07 03:23:00,59.5,57.5,29.97,East,81,0.0,0.0,93,0.00,,---,0.00,VWS V14.01,2013-04-07 07:23:00,
2013-04-07 03:27:00,59.6,57.6,29.97,East,81,0.0,0.0,93,0.00,,---,0.00,VWS V14.01,2013-04-07 07:27:00,
2013-04-07 03:28:00,59.5,57.5,29.97,East,81,0.0,0.0,93,0.00,,---,0.00,VWS V14.01,2013-04-07 07:28:00,
2013-04-07 03:29:00,59.5,57.5,29.97,East,81,0.0,0.0,93,0.00,,---,0.00,VWS V14.01,2013-04-07 07:29:00,
2013-04-07 03:31:00,59.5,57.5,29.97,East,81,0.0,0.0,93,0.00,,---,0.00,VWS V14.01,2013-04-07 07:31:00,
2013-04-07 03:39:00,59.5,57.8,29.96,East,81,0.0,0.0,94,0.00,,---,0.00,VWS V14.01,2013-04-07 07:39:00,
2013-04-07 03:42:00,59.5,57.8,29.96,East,81,0.0,0.0,94,0.00,,---,0.00,VWS V14.01,2013-04-07 07:42:00,
2013-04-07 03:44:00,59.5,57.8,29.96,East,81,0.0,0.0,94,0.00,,---,0.00,VWS V14.01,2013-04-07 07:44:00,
2013-04-07 03:49:00,59.5,57.8,29.96,East,81,0.0,0.0,94,0.00,,---,0.00,VWS V14.01,2013-04-07 07:49:00,
2013-04-07 03:50:00,59.5,57.8,29.95,East,81,0.0,0.0,94,0.00,,---,0.00,VWS V14.01,2013-04-07 07:50:00,
2013-04-07 03:53:00,59.5,57.8,29.95,East,81,0.0,0.0,94,0.00,,---,0.00,VWS V14.01,2013-04-07 07:53:00,
2013-04-07 03:55:00,59.5,58.1,29.95,East,81,0.0,0.0,95,0.00,,---,0.00,VWS V14.01,2013-04-07 07:55:00,
2013-04-07 03:59:00,59.5,57.8,29.95,East,81,0.0,0.0,94,0.00,,---,0.00,VWS V14.01,2013-04-07 07:59:00,
2013-04-07 04:01:00,59.5,58.1,29.95,East,81,0.0,0.0,95,0.00,,---,0.00,VWS V14.01,2013-04-07 08:01:00,
2013-04-07 04:02:00,59.5,58.1,29.95,East,81,0.0,0.0,95,0.00,,---,0.00,VWS V14.01,2013-04-07 08:02:00,
2013-04-07 04:07:00,59.6,58.2,29.96,East,81,0.0,0.0,95,0.00,,---,0.00,VWS V14.01,2013-04-07 08:07:00,
2013-04-07 04:12:00,59.8,58.4,29.96,East,81,0.0,0.0,95,0.00,,---,0.00,VWS V14.01,2013-04-07 08:12:00,
2013-04-07 04:14:00,59.8,58.4,29.96,East,81,0.0,0.0,95,0.00,,---,0.00,VWS V14.01,2013-04-07 08:14:00,
2013-04-07 04:17:00,59.8,58.4,29.96,East,81,0.0,0.0,95,0.00,,---,0.00,VWS V14.01,2013-04-07 08:17:00,
2013-04-07 04:19:00,59.8,58.4,29.97,East,81,0.0,0.0,95,0.00,,---,0.00,VWS V14.01,2013-04-07 08:19:00,
2013-04-07 04:23:00,59.8,58.4,29.97,East,81,0.0,0.0,95,0.00,,---,0.00,VWS V14.01,2013-04-07 08:23:00,
2013-04-07 04:25:00,59.8,58.4,29.97,East,81,0.0,0.0,95,0.00,,---,0.00,VWS V14.01,2013-04-07 08:25:00,
2013-04-07 04:28:00,59.8,58.4,29.97,East,81,0.0,0.0,95,0.00,,---,0.00,VWS V14.01,2013-04-07 08:28:00,
2013-04-07 04:30:00,59.8,58.4,29.97,East,81,0.0,0.0,95,0.00,,---,0.00,VWS V14.01,2013-04-07 08:30:00,
2013-04-07 04:33:00,59.8,58.4,29.97,East,81,0.0,0.0,95,0.00,,---,0.00,VWS V14.01,2013-04-07 08:33:00,
2013-04-07 04:35:00,59.8,58.4,29.97,East,81,0.0,0.0,95,0.00,,---,0.00,VWS V14.01,2013-04-07 08:35:00,
2013-04-07 04:37:00,59.8,58.4,29.97,East,81,0.0,0.0,95,0.00,,---,0.00,VWS V14.01,2013-04-07 08:37:00,
2013-04-07 04:40:00,59.9,58.5,29.97,East,81,0.0,0.0,95,0.00,,---,0.00,VWS V14.01,2013-04-07 08:40:00,
2013-04-07 04:41:00,59.9,58.5,29.97,East,81,0.0,0.0,95,0.00,,---,0.00,VWS V14.01,2013-04-07 08:41:00,
2013-04-07 04:43:00,59.9,58.5,29.97,East,81,0.0,0.0,95,0.00,,---,0.00,VWS V14.01,2013-04-07 08:43:00,
2013-04-07 04:48:00,59.9,58.5,29.97,East,81,0.0,0.0,95,0.00,,---,0.00,VWS V14.01,2013-04-07 08:48:00,
2013-04-07 04:50:00,59.9,58.5,29.97,East,81,0.0,0.0,95,0.00,,---,0.00,VWS V14.01,2013-04-07 08:50:00,
2013-04-07 04:51:00,59.9,58.5,29.97,East,81,0.0,0.0,95,0.00,,---,0.00,VWS V14.01,2013-04-07 08:51:00,
2013-04-07 04:55:00,59.9,58.8,29.97,East,81,0.0,0.0,96,0.00,,---,0.00,VWS V14.01,2013-04-07 08:55:00,
2013-04-07 04:56:00,59.9,58.8,29.97,East,81,0.0,0.0,96,0.00,,---,0.00,VWS V14.01,2013-04-07 08:56:00,
2013-04-07 04:59:00,59.9,58.8,29.97,East,81,0.0,0.0,96,0.00,,---,0.00,VWS V14.01,2013-04-07 08:59:00,
2013-04-07 05:00:00,59.9,58.8,29.97,East,81,0.0,0.0,96,0.00,,---,0.00,VWS V14.01,2013-04-07 09:00:00,
2013-04-07 05:02:00,59.9,58.8,29.97,East,81,0.0,0.0,96,0.00,,---,0.00,VWS V14.01,2013-04-07 09:02:00,
2013-04-07 05:04:00,59.9,58.8,29.97,East,81,0.0,0.0,96,0.00,,---,0.00,VWS V14.01,2013-04-07 09:04:00,
2013-04-07 05:05:00,59.9,58.8,29.97,East,81,0.0,0.0,96,0.00,,---,0.00,VWS V14.01,2013-04-07 09:05:00,
2013-04-07 05:06:00,59.9,58.8,29.97,East,81,0.0,0.0,96,0.00,,---,0.00,VWS V14.01,2013-04-07 09:06:00,
2013-04-07 05:11:00,60.1,59.0,29.97,East,81,0.0,0.0,96,0.00,,---,0.00,VWS V14.01,2013-04-07 09:11:00,
2013-04-07 05:13:00,60.1,59.0,29.97,East,81,0.0,0.0,96,0.00,,---,0.00,VWS V14.01,2013-04-07 09:13:00,
2013-04-07 05:15:00,60.1,59.0,29.97,East,81,0.0,0.0,96,0.00,,---,0.00,VWS V14.01,2013-04-07 09:15:00,
2013-04-07 05:17:00,59.9,58.8,29.97,East,81,4.0,4.0,96,0.00,,---,0.00,VWS V14.01,2013-04-07 09:17:00,
2013-04-07 05:21:00,59.9,58.8,29.98,East,81,0.0,4.0,96,0.00,,---,0.00,VWS V14.01,2013-04-07 09:21:00,
2013-04-07 05:23:00,59.9,58.8,29.98,East,81,0.0,4.0,96,0.00,,---,0.00,VWS V14.01,2013-04-07 09:23:00,
2013-04-07 05:24:00,59.9,58.8,29.98,East,81,0.0,4.0,96,0.00,,---,0.00,VWS V14.01,2013-04-07 09:24:00,
2013-04-07 05:26:00,59.9,58.8,29.98,East,81,0.0,4.0,96,0.00,,---,0.00,VWS V14.01,2013-04-07 09:26:00,
2013-04-07 05:27:00,59.9,58.8,29.98,East,81,0.0,4.0,96,0.00,,---,0.00,VWS V14.01,2013-04-07 09:27:00,
2013-04-07 05:29:00,60.1,59.0,29.98,East,81,0.0,4.0,96,0.00,,---,0.00,VWS V14.01,2013-04-07 09:29:00,
2013-04-07 05:31:00,60.1,59.0,29.98,East,81,0.0,4.0,96,0.00,,---,0.00,VWS V14.01,2013-04-07 09:31:00,
2013-04-07 05:34:00,59.9,58.8,29.98,East,81,0.0,4.0,96,0.00,,---,0.00,VWS V14.01,2013-04-07 09:34:00,
2013-04-07 05:40:00,59.9,58.8,29.98,East,81,0.0,4.0,96,0.00,,---,0.00,VWS V14.01,2013-04-07 09:40:00,
2013-04-07 05:42:00,59.9,58.8,29.98,East,81,0.0,4.0,96,0.00,,---,0.00,VWS V14.01,2013-04-07 09:42:00,
2013-04-07 05:45:00,59.9,58.8,29.98,East,81,0.0,4.0,96,0.00,,---,0.00,VWS V14.01,2013-04-07 09:45:00,
2013-04-07 05:49:00,59.9,58.8,29.99,East,81,0.0,4.0,96,0.00,,---,0.00,VWS V14.01,2013-04-07 09:49:00,
2013-04-07 05:52:00,60.1,59.0,29.99,East,81,0.0,4.0,96,0.00,,---,0.00,VWS V14.01,2013-04-07 09:52:00,
2013-04-07 05:55:00,60.1,59.0,29.99,East,81,0.0,4.0,96,0.00,,---,0.00,VWS V14.01,2013-04-07 09:55:00,
2013-04-07 05:56:00,60.1,59.0,29.99,East,81,0.0,4.0,96,0.00,,---,0.00,VWS V14.01,2013-04-07 09:56:00,
2013-04-07 05:58:00,60.1,59.0,29.99,East,81,0.0,4.0,96,0.00,,---,0.00,VWS V14.01,2013-04-07 09:58:00,
2013-04-07 06:01:00,60.1,59.0,29.99,East,81,0.0,4.0,96,0.00,,---,0.00,VWS V14.01,2013-04-07 10:01:00,
2013-04-07 06:02:00,60.1,59.0,29.99,East,81,0.0,4.0,96,0.00,,---,0.00,VWS V14.01,2013-04-07 10:02:00,
2013-04-07 06:03:00,60.1,59.0,29.99,East,81,0.0,4.0,96,0.00,,---,0.00,VWS V14.01,2013-04-07 10:03:00,
2013-04-07 06:07:00,60.1,59.0,29.99,East,81,0.0,0.0,96,0.00,,---,0.00,VWS V14.01,2013-04-07 10:07:00,
2013-04-07 06:08:00,60.1,59.0,29.99,East,81,0.0,0.0,96,0.00,,---,0.00,VWS V14.01,2013-04-07 10:08:00,
2013-04-07 06:09:00,60.1,59.0,29.99,East,81,0.0,0.0,96,0.00,,---,0.00,VWS V14.01,2013-04-07 10:09:00,
2013-04-07 06:14:00,60.1,59.0,29.99,East,81,0.0,0.0,96,0.00,,---,0.00,VWS V14.01,2013-04-07 10:14:00,
2013-04-07 06:15:00,60.1,59.0,29.99,East,81,0.0,0.0,96,0.00,,---,0.00,VWS V14.01,2013-04-07 10:15:00,
2013-04-07 06:18:00,60.1,59.0,29.99,East,81,0.0,0.0,96,0.00,,---,0.00,VWS V14.01,2013-04-07 10:18:00,
2013-04-07 06:19:00,60.1,59.0,29.99,East,81,0.0,0.0,96,0.00,,---,0.00,VWS V14.01,2013-04-07 10:19:00,
2013-04-07 06:21:00,60.1,59.0,29.99,East,81,0.0,0.0,96,0.00,,---,0.00,VWS V14.01,2013-04-07 10:21:00,
2013-04-07 06:25:00,60.2,59.1,29.99,East,81,0.0,0.0,96,0.00,,---,0.00,VWS V14.01,2013-04-07 10:25:00,
2013-04-07 06:28:00,60.2,59.1,29.99,East,81,0.0,0.0,96,0.00,,---,0.00,VWS V14.01,2013-04-07 10:28:00,
2013-04-07 06:30:00,60.2,59.3,29.99,East,81,0.0,0.0,97,0.00,,---,0.00,VWS V14.01,2013-04-07 10:30:00,
2013-04-07 06:33:00,60.2,59.1,30.00,East,81,0.0,0.0,96,0.00,,---,0.00,VWS V14.01,2013-04-07 10:33:00,
2013-04-07 06:34:00,60.2,59.1,30.00,East,81,0.0,0.0,96,0.00,,---,0.00,VWS V14.01,2013-04-07 10:34:00,
2013-04-07 06:35:00,60.2,59.1,30.00,East,81,0.0,0.0,96,0.00,,---,0.00,VWS V14.01,2013-04-07 10:35:00,
2013-04-07 06:39:00,60.2,59.3,30.00,East,81,0.0,0.0,97,0.00,,---,0.00,VWS V14.01,2013-04-07 10:39:00,
2013-04-07 06:42:00,60.2,59.3,30.00,East,81,0.0,0.0,97,0.00,,---,0.00,VWS V14.01,2013-04-07 10:42:00,
2013-04-07 06:45:00,60.2,59.3,30.00,East,81,0.0,0.0,97,0.00,,---,0.00,VWS V14.01,2013-04-07 10:45:00,
2013-04-07 06:52:00,60.2,59.3,30.00,East,81,0.0,0.0,97,0.00,,---,0.00,VWS V14.01,2013-04-07 10:52:00,
2013-04-07 06:54:00,60.2,59.3,30.00,East,81,0.0,0.0,97,0.00,,---,0.00,VWS V14.01,2013-04-07 10:54:00,
2013-04-07 06:57:00,60.2,59.3,30.00,East,81,0.0,0.0,97,0.00,,---,0.00,VWS V14.01,2013-04-07 10:57:00,
2013-04-07 06:58:00,60.4,59.5,30.00,East,81,0.0,0.0,97,0.00,,---,0.00,VWS V14.01,2013-04-07 10:58:00,
2013-04-07 07:02:00,60.4,59.5,30.00,East,81,0.0,0.0,97,0.00,,---,0.00,VWS V14.01,2013-04-07 11:02:00,
2013-04-07 07:04:00,60.4,59.5,30.01,East,81,0.0,0.0,97,0.00,,---,0.00,VWS V14.01,2013-04-07 11:04:00,
2013-04-07 07:07:00,60.4,59.5,30.01,East,81,0.0,0.0,97,0.00,,---,0.00,VWS V14.01,2013-04-07 11:07:00,
2013-04-07 07:08:00,60.4,59.5,30.01,East,81,0.0,0.0,97,0.00,,---,0.00,VWS V14.01,2013-04-07 11:08:00,
2013-04-07 07:10:00,60.4,59.5,30.01,East,81,0.0,0.0,97,0.00,,---,0.00,VWS V14.01,2013-04-07 11:10:00,
2013-04-07 07:14:00,60.4,59.5,30.01,East,81,0.0,0.0,97,0.00,,---,0.00,VWS V14.01,2013-04-07 11:14:00,
2013-04-07 07:18:00,60.4,59.5,30.02,East,81,0.0,0.0,97,0.00,,---,0.00,VWS V14.01,2013-04-07 11:18:00,
2013-04-07 07:19:00,60.4,59.5,30.02,East,81,0.0,0.0,97,0.00,,---,0.00,VWS V14.01,2013-04-07 11:19:00,
2013-04-07 07:25:00,60.4,59.5,30.02,East,81,0.0,0.0,97,0.00,,---,0.00,VWS V14.01,2013-04-07 11:25:00,
2013-04-07 07:27:00,60.5,59.7,30.02,East,81,0.0,0.0,97,0.00,,---,0.00,VWS V14.01,2013-04-07 11:27:00,
2013-04-07 07:29:00,60.5,59.7,30.02,East,81,0.0,0.0,97,0.00,,---,0.00,VWS V14.01,2013-04-07 11:29:00,
2013-04-07 07:30:00,60.5,59.7,30.02,East,81,0.0,0.0,97,0.00,,---,0.00,VWS V14.01,2013-04-07 11:30:00,
2013-04-07 07:33:00,60.5,59.7,30.02,East,81,0.0,0.0,97,0.00,,---,0.00,VWS V14.01,2013-04-07 11:33:00,
2013-04-07 07:37:00,60.5,59.7,30.02,East,81,0.0,0.0,97,0.00,,---,0.00,VWS V14.01,2013-04-07 11:37:00,
2013-04-07 07:38:00,60.5,59.7,30.02,East,81,0.0,0.0,97,0.00,,---,0.00,VWS V14.01,2013-04-07 11:38:00,
2013-04-07 07:43:00,60.7,59.8,30.02,East,81,0.0,0.0,97,0.00,,---,0.00,VWS V14.01,2013-04-07 11:43:00,
2013-04-07 07:44:00,60.7,59.8,30.02,East,81,0.0,0.0,97,0.00,,---,0.00,VWS V14.01,2013-04-07 11:44:00,
2013-04-07 07:46:00,60.7,59.8,30.02,East,81,0.0,0.0,97,0.00,,---,0.00,VWS V14.01,2013-04-07 11:46:00,
2013-04-07 07:48:00,60.9,60.0,30.02,East,81,0.0,0.0,97,0.00,,---,0.00,VWS V14.01,2013-04-07 11:48:00,
2013-04-07 07:50:00,60.9,60.0,30.02,East,81,3.0,3.0,97,0.00,,---,0.00,VWS V14.01,2013-04-07 11:50:00,
2013-04-07 07:51:00,61.0,60.2,30.02,East,81,0.0,3.0,97,0.00,,---,0.00,VWS V14.01,2013-04-07 11:51:00,
2013-04-07 07:53:00,61.0,60.2,30.02,East,81,0.0,3.0,97,0.00,,---,0.00,VWS V14.01,2013-04-07 11:53:00,
2013-04-07 07:56:00,61.2,60.3,30.02,East,81,0.0,3.0,97,0.00,,---,0.00,VWS V14.01,2013-04-07 11:56:00,
2013-04-07 07:58:00,61.2,60.3,30.02,East,81,0.0,3.0,97,0.00,,---,0.00,VWS V14.01,2013-04-07 11:58:00,
2013-04-07 08:04:00,61.2,60.3,30.02,East,81,0.0,3.0,97,0.00,,---,0.00,VWS V14.01,2013-04-07 12:04:00,
2013-04-07 08:05:00,61.3,60.4,30.03,East,81,0.0,3.0,97,0.00,,---,0.00,VWS V14.01,2013-04-07 12:05:00,
2013-04-07 08:09:00,61.3,60.4,30.03,East,81,0.0,0.0,97,0.00,,---,0.00,VWS V14.01,2013-04-07 12:09:00,
2013-04-07 08:12:00,61.5,60.6,30.03,East,81,0.0,0.0,97,0.00,,---,0.00,VWS V14.01,2013-04-07 12:12:00,
2013-04-07 08:14:00,61.8,60.9,30.03,East,81,0.0,0.0,97,0.00,,---,0.00,VWS V14.01,2013-04-07 12:14:00,
2013-04-07 08:15:00,61.8,60.9,30.03,East,81,0.0,0.0,97,0.00,,---,0.00,VWS V14.01,2013-04-07 12:15:00,
2013-04-07 08:18:00,62.0,60.8,30.03,East,81,0.0,0.0,96,0.00,,---,0.00,VWS V14.01,2013-04-07 12:18:00,
2013-04-07 08:19:00,62.1,61.0,30.03,East,81,0.0,0.0,96,0.00,,---,0.00,VWS V14.01,2013-04-07 12:19:00,
2013-04-07 08:24:00,62.6,61.5,30.03,East,81,2.0,2.0,96,0.00,,---,0.00,VWS V14.01,2013-04-07 12:24:00,
2013-04-07 08:25:00,62.7,61.2,30.03,East,81,0.0,2.0,95,0.00,,---,0.00,VWS V14.01,2013-04-07 12:25:00,
2013-04-07 08:26:00,62.7,61.2,30.03,East,81,0.0,2.0,95,0.00,,---,0.00,VWS V14.01,2013-04-07 12:26:00,
2013-04-07 08:28:00,62.9,61.5,30.03,East,81,0.0,2.0,95,0.00,,---,0.00,VWS V14.01,2013-04-07 12:28:00,
2013-04-07 08:30:00,62.9,61.5,30.03,East,81,0.0,2.0,95,0.00,,---,0.00,VWS V14.01,2013-04-07 12:30:00,
2013-04-07 08:35:00,63.4,61.3,30.04,East,81,0.0,2.0,93,0.00,,---,0.00,VWS V14.01,2013-04-07 12:35:00,
2013-04-07 08:37:00,63.9,61.5,30.04,East,80,5.0,5.0,92,0.00,,---,0.00,VWS V14.01,2013-04-07 12:37:00,
2013-04-07 08:38:00,63.9,61.5,30.04,East,80,5.0,5.0,92,0.00,,---,0.00,VWS V14.01,2013-04-07 12:38:00,
2013-04-07 08:39:00,64.0,61.6,30.04,East,80,0.0,5.0,92,0.00,,---,0.00,VWS V14.01,2013-04-07 12:39:00,
2013-04-07 08:44:00,64.5,61.8,30.04,East,81,0.0,5.0,91,0.00,,---,0.00,VWS V14.01,2013-04-07 12:44:00,
2013-04-07 08:45:00,64.8,61.8,30.04,East,81,0.0,5.0,90,0.00,,---,0.00,VWS V14.01,2013-04-07 12:45:00,
2013-04-07 08:46:00,64.8,61.8,30.04,East,81,0.0,5.0,90,0.00,,---,0.00,VWS V14.01,2013-04-07 12:46:00,
2013-04-07 08:51:00,65.3,61.3,30.03,East,81,2.0,5.0,87,0.00,,---,0.00,VWS V14.01,2013-04-07 12:51:00,
2013-04-07 08:53:00,65.3,61.3,30.03,East,81,2.0,5.0,87,0.00,,---,0.00,VWS V14.01,2013-04-07 12:53:00,
2013-04-07 08:55:00,65.6,61.3,30.03,East,81,0.0,5.0,86,0.00,,---,0.00,VWS V14.01,2013-04-07 12:55:00,
2013-04-07 08:59:00,66.3,61.0,30.03,NNE,23,5.0,5.0,83,0.00,,---,0.00,VWS V14.01,2013-04-07 12:59:00,
2013-04-07 09:00:00,66.3,61.0,30.03,NNE,23,5.0,5.0,83,0.00,,---,0.00,VWS V14.01,2013-04-07 13:00:00,
2013-04-07 09:04:00,66.8,60.4,30.04,ENE,57,0.0,5.0,80,0.00,,---,0.00,VWS V14.01,2013-04-07 13:04:00,
2013-04-07 09:06:00,66.8,60.4,30.04,ENE,57,0.0,5.0,80,0.00,,---,0.00,VWS V14.01,2013-04-07 13:06:00,
2013-04-07 09:07:00,67.1,60.4,30.04,NNE,27,0.0,6.0,79,0.00,,---,0.00,VWS V14.01,2013-04-07 13:07:00,
2013-04-07 09:10:00,67.3,60.2,30.04,NNE,27,0.0,6.0,78,0.00,,---,0.00,VWS V14.01,2013-04-07 13:10:00,
2013-04-07 09:12:00,67.8,60.7,30.04,ENE,58,0.0,6.0,78,0.00,,---,0.00,VWS V14.01,2013-04-07 13:12:00,
2013-04-07 09:14:00,67.8,60.3,30.04,NE,42,0.0,6.0,77,0.00,,---,0.00,VWS V14.01,2013-04-07 13:14:00,
2013-04-07 09:16:00,68.3,60.8,30.04,NE,42,0.0,6.0,77,0.00,,---,0.00,VWS V14.01,2013-04-07 13:16:00,
2013-04-07 09:22:00,68.6,60.4,30.05,NNE,15,4.0,6.0,75,0.00,,---,0.00,VWS V14.01,2013-04-07 13:22:00,
2013-04-07 09:23:00,68.8,60.2,30.05,NNE,28,0.0,6.0,74,0.00,,---,0.00,VWS V14.01,2013-04-07 13:23:00,
2013-04-07 09:27:00,69.4,60.4,30.05,NE,38,0.0,7.0,73,0.00,,---,0.00,VWS V14.01,2013-04-07 13:27:00,
2013-04-07 09:29:00,69.8,60.4,30.05,NE,47,0.0,7.0,72,0.00,,---,0.00,VWS V14.01,2013-04-07 13:29:00,
2013-04-07 09:30:00,69.8,60.4,30.05,NE,47,0.0,7.0,72,0.00,,---,0.00,VWS V14.01,2013-04-07 13:30:00,
2013-04-07 09:31:00,69.8,60.8,30.05,NE,47,0.0,7.0,73,0.00,,---,0.00,VWS V14.01,2013-04-07 13:31:00,
2013-04-07 09:33:00,70.3,61.2,30.05,NE,56,0.0,7.0,73,0.00,,---,0.00,VWS V14.01,2013-04-07 13:33:00,
2013-04-07 09:35:00,70.6,60.8,30.05,ENE,58,5.0,7.0,71,0.00,,---,0.00,VWS V14.01,2013-04-07 13:35:00,
2013-04-07 09:36:00,70.6,60.8,30.05,ENE,58,5.0,7.0,71,0.00,,---,0.00,VWS V14.01,2013-04-07 13:36:00,
2013-04-07 09:39:00,70.8,60.5,30.05,ENE,59,5.0,7.0,70,0.00,,---,0.00,VWS V14.01,2013-04-07 13:39:00,
2013-04-07 09:40:00,70.9,60.6,30.05,ENE,65,0.0,7.0,70,0.00,,---,0.00,VWS V14.01,2013-04-07 13:40:00,
2013-04-07 09:46:00,71.5,61.2,30.05,East,80,4.0,7.0,70,0.00,,---,0.00,VWS V14.01,2013-04-07 13:46:00,
2013-04-07 09:50:00,71.5,60.8,30.05,NE,50,5.0,7.0,69,0.00,,---,0.00,VWS V14.01,2013-04-07 13:50:00,
2013-04-07 09:52:00,71.3,60.6,30.05,NE,52,2.0,7.0,69,0.00,,---,0.00,VWS V14.01,2013-04-07 13:52:00,
2013-04-07 09:53:00,71.3,60.6,30.05,NE,49,2.0,7.0,69,0.00,,---,0.00,VWS V14.01,2013-04-07 13:53:00,
2013-04-07 09:54:00,71.3,60.6,30.05,NE,49,0.0,7.0,69,0.00,,---,0.00,VWS V14.01,2013-04-07 13:54:00,
2013-04-07 09:58:00,71.3,60.6,30.05,East,79,0.0,7.0,69,0.00,,---,0.00,VWS V14.01,2013-04-07 13:58:00,
2013-04-07 09:59:00,71.6,60.9,30.05,East,79,0.0,7.0,69,0.00,,---,0.00,VWS V14.01,2013-04-07 13:59:00,
2013-04-07 10:03:00,72.5,60.9,30.06,ESE,113,0.0,7.0,67,0.00,,---,0.00,VWS V14.01,2013-04-07 14:03:00,
2013-04-07 10:05:00,72.7,60.7,30.06,ESE,111,0.0,1.0,66,0.00,,---,0.00,VWS V14.01,2013-04-07 14:05:00,
2013-04-07 10:10:00,73.2,60.3,30.06,NE,49,1.0,8.0,64,0.00,,---,0.00,VWS V14.01,2013-04-07 14:10:00,
2013-04-07 10:13:00,73.2,59.4,30.06,NE,47,8.0,8.0,62,0.00,,---,0.00,VWS V14.01,2013-04-07 14:13:00,
2013-04-07 10:15:00,73.2,59.4,30.06,East,79,0.0,8.0,62,0.00,,---,0.00,VWS V14.01,2013-04-07 14:15:00,
2013-04-07 10:18:00,73.2,59.4,30.05,East,81,0.0,8.0,62,0.00,,---,0.00,VWS V14.01,2013-04-07 14:18:00,
2013-04-07 10:24:00,73.7,59.4,30.05,NNE,27,9.0,9.0,61,0.00,,---,0.00,VWS V14.01,2013-04-07 14:24:00,
2013-04-07 10:25:00,73.9,59.6,30.05,SE,134,0.0,9.0,61,0.00,,---,0.00,VWS V14.01,2013-04-07 14:25:00,
2013-04-07 10:28:00,74.0,59.2,30.05,ENE,70,5.0,9.0,60,0.00,,---,0.00,VWS V14.01,2013-04-07 14:28:00,
2013-04-07 10:31:00,74.2,59.4,30.05,East,83,0.0,9.0,60,0.00,,---,0.00,VWS V14.01,2013-04-07 14:31:00,
2013-04-07 10:32:00,74.4,59.6,30.05,East,96,2.0,9.0,60,0.00,,---,0.00,VWS V14.01,2013-04-07 14:32:00,
2013-04-07 10:33:00,74.4,59.6,30.06,NE,34,8.0,9.0,60,0.00,,---,0.00,VWS V14.01,2013-04-07 14:33:00,
2013-04-07 10:37:00,74.6,59.8,30.06,NE,55,6.0,9.0,60,0.00,,---,0.00,VWS V14.01,2013-04-07 14:37:00,
2013-04-07 10:39:00,74.6,59.3,30.06,ESE,108,0.0,9.0,59,0.00,,---,0.00,VWS V14.01,2013-04-07 14:39:00,
2013-04-07 10:43:00,74.7,59.0,30.06,NE,51,0.0,9.0,58,0.00,,---,0.00,VWS V14.01,2013-04-07 14:43:00,
2013-04-07 10:46:00,74.7,59.0,30.06,NE,51,0.0,9.0,58,0.00,,---,0.00,VWS V14.01,2013-04-07 14:46:00,
2013-04-07 10:50:00,75.1,58.8,30.06,NE,41,0.0,9.0,57,0.00,,---,0.00,VWS V14.01,2013-04-07 14:50:00,
2013-04-07 10:51:00,75.1,58.8,30.06,NE,41,0.0,9.0,57,0.00,,---,0.00,VWS V14.01,2013-04-07 14:51:00,
2013-04-07 10:55:00,75.1,58.3,30.06,NE,37,5.0,9.0,56,0.00,,---,0.00,VWS V14.01,2013-04-07 14:55:00,
2013-04-07 10:57:00,75.1,58.8,30.06,NE,48,0.0,9.0,57,0.00,,---,0.00,VWS V14.01,2013-04-07 14:57:00,
2013-04-07 10:58:00,75.1,58.8,30.06,East,89,0.0,9.0,57,0.00,,---,0.00,VWS V14.01,2013-04-07 14:58:00,
2013-04-07 10:59:00,75.1,58.8,30.06,East,89,0.0,9.0,57,0.00,,---,0.00,VWS V14.01,2013-04-07 14:59:00,
2013-04-07 11:07:00,75.4,59.1,30.06,ESE,106,0.0,9.0,57,0.00,,---,0.00,VWS V14.01,2013-04-07 15:07:00,
2013-04-07 11:09:00,75.6,59.3,30.06,NNE,32,4.0,9.0,57,0.00,,---,0.00,VWS V14.01,2013-04-07 15:09:00,
2013-04-07 11:10:00,75.8,58.5,30.06,ENE,58,0.0,9.0,55,0.00,,---,0.00,VWS V14.01,2013-04-07 15:10:00,
2013-04-07 11:15:00,75.8,59.0,30.06,East,88,0.0,9.0,56,0.00,,---,0.00,VWS V14.01,2013-04-07 15:15:00,
2013-04-07 11:16:00,75.6,59.3,30.06,ENE,68,0.0,9.0,57,0.00,,---,0.00,VWS V14.01,2013-04-07 15:16:00,
2013-04-07 11:17:00,75.6,59.3,30.06,ENE,68,0.0,9.0,57,0.00,,---,0.00,VWS V14.01,2013-04-07 15:17:00,
2013-04-07 11:24:00,75.3,59.5,30.06,East,94,0.0,9.0,58,0.00,,---,0.00,VWS V14.01,2013-04-07 15:24:00,
2013-04-07 11:27:00,75.6,58.8,30.06,East,83,0.0,9.0,56,0.00,,---,0.00,VWS V14.01,2013-04-07 15:27:00,
2013-04-07 11:32:00,77.0,59.6,30.06,SE,133,0.0,9.0,55,0.00,,---,0.00,VWS V14.01,2013-04-07 15:32:00,
2013-04-07 11:33:00,77.2,59.3,30.06,SE,130,0.0,9.0,54,0.00,,---,0.00,VWS V14.01,2013-04-07 15:33:00,
2013-04-07 11:35:00,77.4,59.5,30.06,South,174,8.0,9.0,54,0.00,,---,0.00,VWS V14.01,2013-04-07 15:35:00,
2013-04-07 11:39:00,77.9,58.9,30.06,ESE,114,0.0,9.0,52,0.00,,---,0.00,VWS V14.01,2013-04-07 15:39:00,
2013-04-07 11:41:00,78.1,59.6,30.06,ESE,110,0.0,9.0,53,0.00,,---,0.00,VWS V14.01,2013-04-07 15:41:00,
2013-04-07 11:45:00,78.1,58.5,30.06,ENE,77,0.0,9.0,51,0.00,,---,0.00,VWS V14.01,2013-04-07 15:45:00,
2013-04-07 11:47:00,78.1,59.1,30.06,East,84,0.0,9.0,52,0.00,,---,0.00,VWS V14.01,2013-04-07 15:47:00,
2013-04-07 11:50:00,77.9,58.3,30.06,NE,44,0.0,9.0,51,0.00,,---,0.00,VWS V14.01,2013-04-07 15:50:00,
2013-04-07 11:51:00,77.7,59.2,30.06,ENE,75,1.0,9.0,53,0.00,,---,0.00,VWS V14.01,2013-04-07 15:51:00,
2013-04-07 11:53:00,77.6,59.1,30.06,East,89,0.0,9.0,53,0.00,,---,0.00,VWS V14.01,2013-04-07 15:53:00,
2013-04-07 11:58:00,77.9,58.3,30.06,NNE,25,5.0,9.0,51,0.00,,---,0.00,VWS V14.01,2013-04-07 15:58:00,
2013-04-07 11:59:00,78.1,58.5,30.06,ENE,78,0.0,9.0,51,0.00,,---,0.00,VWS V14.01,2013-04-07 15:59:00,
2013-04-07 12:00:00,78.1,58.5,30.06,ENE,78,0.0,9.0,51,0.00,,---,0.00,VWS V14.01,2013-04-07 16:00:00,
2013-04-07 12:02:00,78.1,58.5,30.06,NNE,18,6.0,9.0,51,0.00,,---,0.00,VWS V14.01,2013-04-07 16:02:00,
2013-04-07 12:06:00,78.1,58.5,30.06,SSE,153,0.0,9.0,51,0.00,,---,0.00,VWS V14.01,2013-04-07 16:06:00,
2013-04-07 12:08:00,78.1,57.4,30.06,SSE,153,0.0,9.0,49,0.00,,---,0.00,VWS V14.01,2013-04-07 16:08:00,
2013-04-07 12:09:00,78.5,57.8,30.06,East,94,0.0,9.0,49,0.00,,---,0.00,VWS V14.01,2013-04-07 16:09:00,
2013-04-07 12:11:00,78.6,57.9,30.06,East,98,0.0,9.0,49,0.00,,---,0.00,VWS V14.01,2013-04-07 16:11:00,
2013-04-07 12:15:00,78.6,57.3,30.06,East,91,0.0,9.0,48,0.00,,---,0.00,VWS V14.01,2013-04-07 16:15:00,
2013-04-07 12:25:00,77.7,57.6,30.05,East,96,0.0,9.0,50,0.00,,---,0.00,VWS V14.01,2013-04-07 16:25:00,
2013-04-07 12:33:00,77.2,57.7,30.05,East,100,0.0,9.0,51,0.00,,---,0.00,VWS V14.01,2013-04-07 16:33:00,
2013-04-07 12:34:00,77.7,59.2,30.05,East,86,0.0,9.0,53,0.00,,---,0.00,VWS V14.01,2013-04-07 16:34:00,
2013-04-07 12:35:00,77.9,57.8,30.05,NNE,31,0.0,9.0,50,0.00,,---,0.00,VWS V14.01,2013-04-07 16:35:00,
2013-04-07 12:38:00,78.1,57.4,30.05,NNE,32,0.0,9.0,49,0.00,,---,0.00,VWS V14.01,2013-04-07 16:38:00,
2013-04-07 12:42:00,77.9,57.8,30.05,East,87,0.0,9.0,50,0.00,,---,0.00,VWS V14.01,2013-04-07 16:42:00,
2013-04-07 12:44:00,78.1,58.5,30.05,SE,124,0.0,9.0,51,0.00,,---,0.00,VWS V14.01,2013-04-07 16:44:00,
2013-04-07 12:46:00,78.3,58.2,30.05,SE,124,3.0,9.0,50,0.00,,---,0.00,VWS V14.01,2013-04-07 16:46:00,
2013-04-07 12:48:00,78.5,58.9,30.05,ESE,102,1.0,9.0,51,0.00,,---,0.00,VWS V14.01,2013-04-07 16:48:00,
2013-04-07 12:51:00,78.6,57.9,30.05,SE,132,3.0,9.0,49,0.00,,---,0.00,VWS V14.01,2013-04-07 16:51:00,
2013-04-07 12:54:00,79.4,57.4,30.05,ESE,103,0.0,9.0,47,0.00,,---,0.00,VWS V14.01,2013-04-07 16:54:00,
2013-04-07 12:55:00,79.8,57.8,30.05,North,10,0.0,9.0,47,0.00,,---,0.00,VWS V14.01,2013-04-07 16:55:00,
2013-04-07 12:57:00,79.6,57.6,30.05,NNE,29,0.0,9.0,47,0.00,,---,0.00,VWS V14.01,2013-04-07 16:57:00,
2013-04-07 12:59:00,79.4,57.4,30.05,NE,43,0.0,9.0,47,0.00,,---,0.00,VWS V14.01,2013-04-07 16:59:00,
2013-04-07 13:02:00,78.6,57.9,30.05,NE,45,0.0,9.0,49,0.00,,---,0.00,VWS V14.01,2013-04-07 17:02:00,
2013-04-07 13:07:00,78.8,56.9,30.04,East,80,0.0,9.0,47,0.00,,---,0.00,VWS V14.01,2013-04-07 17:07:00,
2013-04-07 13:09:00,79.0,57.1,30.04,East,80,0.0,9.0,47,0.00,,---,0.00,VWS V14.01,2013-04-07 17:09:00,
2013-04-07 13:10:00,78.8,56.9,30.04,NNE,27,0.0,9.0,47,0.00,,---,0.00,VWS V14.01,2013-04-07 17:10:00,
2013-04-07 13:12:00,79.2,58.4,30.04,SE,143,0.0,9.0,49,0.00,,---,0.00,VWS V14.01,2013-04-07 17:12:00,
2013-04-07 13:15:00,79.2,57.2,30.04,SE,143,0.0,9.0,47,0.00,,---,0.00,VWS V14.01,2013-04-07 17:15:00,
2013-04-07 13:19:00,79.4,58.0,30.04,SE,139,0.0,9.0,48,0.00,,---,0.00,VWS V14.01,2013-04-07 17:19:00,
2013-04-07 13:21:00,79.4,58.0,30.04,SE,133,3.0,9.0,48,0.00,,---,0.00,VWS V14.01,2013-04-07 17:21:00,
2013-04-07 13:23:00,79.4,58.0,30.04,SE,133,0.0,9.0,48,0.00,,---,0.00,VWS V14.01,2013-04-07 17:23:00,
2013-04-07 13:25:00,79.6,57.6,30.04,SSE,158,6.0,9.0,47,0.00,,---,0.00,VWS V14.01,2013-04-07 17:25:00,
2013-04-07 13:27:00,79.4,57.4,30.04,ENE,75,0.0,9.0,47,0.00,,---,0.00,VWS V14.01,2013-04-07 17:27:00,
2013-04-07 13:30:00,79.4,57.4,30.04,SE,127,0.0,9.0,47,0.00,,---,0.00,VWS V14.01,2013-04-07 17:30:00,
2013-04-07 13:33:00,79.4,58.0,30.04,SE,127,1.0,9.0,48,0.00,,---,0.00,VWS V14.01,2013-04-07 17:33:00,
2013-04-07 13:38:00,79.8,56.6,30.03,East,82,0.0,9.0,45,0.00,,---,0.00,VWS V14.01,2013-04-07 17:38:00,
2013-04-07 13:41:00,79.9,57.3,30.03,East,91,0.0,9.0,46,0.00,,---,0.00,VWS V14.01,2013-04-07 17:41:00,
2013-04-07 13:42:00,79.9,57.3,30.03,East,91,0.0,9.0,46,0.00,,---,0.00,VWS V14.01,2013-04-07 17:42:00,
2013-04-07 13:45:00,79.9,57.9,30.03,East,91,0.0,9.0,47,0.00,,---,0.00,VWS V14.01,2013-04-07 17:45:00,
2013-04-07 13:48:00,80.1,57.5,30.03,East,101,0.0,9.0,46,0.00,,---,0.00,VWS V14.01,2013-04-07 17:48:00,
2013-04-07 13:51:00,80.3,55.8,30.03,East,101,0.0,9.0,43,0.00,,---,0.00,VWS V14.01,2013-04-07 17:51:00,
2013-04-07 13:54:00,80.7,54.8,30.03,East,101,0.0,9.0,41,0.00,,---,0.00,VWS V14.01,2013-04-07 17:54:00,
2013-04-07 13:56:00,81.2,56.6,30.03,East,101,0.0,9.0,43,0.00,,---,0.00,VWS V14.01,2013-04-07 17:56:00,
2013-04-07 14:00:00,81.8,56.5,30.03,East,101,0.0,9.0,42,0.00,,---,0.00,VWS V14.01,2013-04-07 18:00:00,
2013-04-07 14:06:00,82.6,56.5,30.03,SE,139,0.0,9.0,41,0.00,,---,0.00,VWS V14.01,2013-04-07 18:06:00,
2013-04-07 14:11:00,82.0,56.0,30.02,NE,37,1.0,9.0,41,0.00,,---,0.00,VWS V14.01,2013-04-07 18:11:00,
2013-04-07 14:12:00,81.6,54.3,30.02,NE,37,0.0,9.0,39,0.00,,---,0.00,VWS V14.01,2013-04-07 18:12:00,
2013-04-07 14:14:00,81.1,55.2,30.02,ENE,67,0.0,9.0,41,0.00,,---,0.00,VWS V14.01,2013-04-07 18:14:00,
2013-04-07 14:19:00,80.9,55.7,30.02,SE,143,0.0,9.0,42,0.00,,---,0.00,VWS V14.01,2013-04-07 18:19:00,
2013-04-07 14:20:00,80.7,55.5,30.01,SE,136,0.0,9.0,42,0.00,,---,0.00,VWS V14.01,2013-04-07 18:20:00,
2013-04-07 14:25:00,81.1,55.9,30.01,ESE,106,1.0,9.0,42,0.00,,---,0.00,VWS V14.01,2013-04-07 18:25:00,
2013-04-07 14:26:00,81.2,56.0,30.01,ESE,106,1.0,9.0,42,0.00,,---,0.00,VWS V14.01,2013-04-07 18:26:00,
2013-04-07 14:27:00,81.2,56.0,30.01,ESE,106,0.0,9.0,42,0.00,,---,0.00,VWS V14.01,2013-04-07 18:27:00,
2013-04-07 14:30:00,81.6,56.3,30.01,ESE,105,0.0,9.0,42,0.00,,---,0.00,VWS V14.01,2013-04-07 18:30:00,
2013-04-07 14:31:00,81.8,55.8,30.01,South,175,6.0,9.0,41,0.00,,---,0.00,VWS V14.01,2013-04-07 18:31:00,
2013-04-07 14:36:00,82.2,56.2,30.01,NE,51,0.0,9.0,41,0.00,,---,0.00,VWS V14.01,2013-04-07 18:36:00,
2013-04-07 14:37:00,82.4,56.4,30.01,SE,135,0.0,9.0,41,0.00,,---,0.00,VWS V14.01,2013-04-07 18:37:00,
2013-04-07 14:39:00,82.8,57.4,30.01,ESE,110,0.0,9.0,42,0.00,,---,0.00,VWS V14.01,2013-04-07 18:39:00,
2013-04-07 14:40:00,82.8,57.4,30.01,NE,39,6.0,9.0,42,0.00,,---,0.00,VWS V14.01,2013-04-07 18:40:00,
2013-04-07 14:42:00,82.8,56.7,30.01,East,86,0.0,9.0,41,0.00,,---,0.00,VWS V14.01,2013-04-07 18:42:00,
2013-04-07 14:44:00,82.8,56.0,30.01,East,86,0.0,9.0,40,0.00,,---,0.00,VWS V14.01,2013-04-07 18:44:00,
2013-04-07 14:48:00,82.8,55.3,30.01,East,96,2.0,9.0,39,0.00,,---,0.00,VWS V14.01,2013-04-07 18:48:00,
2013-04-07 14:49:00,83.0,56.2,30.00,SSE,149,0.0,9.0,40,0.00,,---,0.00,VWS V14.01,2013-04-07 18:49:00,
2013-04-07 14:54:00,83.4,55.2,30.00,East,84,0.0,9.0,38,0.00,,---,0.00,VWS V14.01,2013-04-07 18:54:00,
2013-04-07 14:55:00,83.6,56.0,30.00,East,84,0.0,9.0,39,0.00,,---,0.00,VWS V14.01,2013-04-07 18:55:00,
2013-04-07 15:02:00,84.3,56.0,30.00,NE,44,0.0,9.0,38,0.00,,---,0.00,VWS V14.01,2013-04-07 19:02:00,
2013-04-07 15:03:00,84.3,57.4,30.00,NE,44,0.0,9.0,40,0.00,,---,0.00,VWS V14.01,2013-04-07 19:03:00,
2013-04-07 15:05:00,84.3,57.4,30.00,NE,44,0.0,9.0,40,0.00,,---,0.00,VWS V14.01,2013-04-07 19:05:00,
2013-04-07 15:09:00,84.7,56.3,30.00,SE,134,1.0,9.0,38,0.00,,---,0.00,VWS V14.01,2013-04-07 19:09:00,
2013-04-07 15:11:00,84.5,57.5,30.00,ESE,117,0.0,9.0,40,0.00,,---,0.00,VWS V14.01,2013-04-07 19:11:00,
2013-04-07 15:12:00,84.5,57.5,30.00,East,88,0.0,9.0,40,0.00,,---,0.00,VWS V14.01,2013-04-07 19:12:00,
2013-04-07 15:13:00,84.5,56.8,30.00,NNE,30,7.0,9.0,39,0.00,,---,0.00,VWS V14.01,2013-04-07 19:13:00,
2013-04-07 15:15:00,84.0,58.5,30.00,NE,40,0.0,9.0,42,0.00,,---,0.00,VWS V14.01,2013-04-07 19:15:00,
2013-04-07 15:19:00,83.4,57.9,30.00,ENE,77,4.0,9.0,42,0.00,,---,0.00,VWS V14.01,2013-04-07 19:19:00,
2013-04-07 15:20:00,82.4,56.4,29.99,East,89,0.0,9.0,41,0.00,,---,0.00,VWS V14.01,2013-04-07 19:20:00,
2013-04-07 15:22:00,82.2,56.8,29.99,East,89,0.0,9.0,42,0.00,,---,0.00,VWS V14.01,2013-04-07 19:22:00,
2013-04-07 15:24:00,82.0,56.7,29.99,East,89,0.0,9.0,42,0.00,,---,0.00,VWS V14.01,2013-04-07 19:24:00,
2013-04-07 15:26:00,82.0,56.7,29.99,East,89,0.0,9.0,42,0.00,,---,0.00,VWS V14.01,2013-04-07 19:26:00,
2013-04-07 15:29:00,82.0,56.7,29.99,East,89,0.0,9.0,42,0.00,,---,0.00,VWS V14.01,2013-04-07 19:29:00,
2013-04-07 15:30:00,81.4,56.1,29.99,East,89,0.0,9.0,42,0.00,,---,0.00,VWS V14.01,2013-04-07 19:30:00,
2013-04-07 15:32:00,81.2,56.6,29.99,East,89,0.0,9.0,43,0.00,,---,0.00,VWS V14.01,2013-04-07 19:32:00,
2013-04-07 15:36:00,81.4,56.1,29.99,East,89,0.0,9.0,42,0.00,,---,0.00,VWS V14.01,2013-04-07 19:36:00,
2013-04-07 15:38:00,81.8,56.5,29.99,East,89,0.0,9.0,42,0.00,,---,0.00,VWS V14.01,2013-04-07 19:38:00,
2013-04-07 15:42:00,83.0,55.5,29.99,East,89,0.0,9.0,39,0.00,,---,0.00,VWS V14.01,2013-04-07 19:42:00,
2013-04-07 15:44:00,84.0,55.7,29.99,NE,37,0.0,9.0,38,0.00,,---,0.00,VWS V14.01,2013-04-07 19:44:00,
2013-04-07 15:47:00,84.1,56.5,29.98,NE,40,0.0,9.0,39,0.00,,---,0.00,VWS V14.01,2013-04-07 19:47:00,
2013-04-07 15:49:00,84.1,56.5,29.98,NE,40,0.0,9.0,39,0.00,,---,0.00,VWS V14.01,2013-04-07 19:49:00,
2013-04-07 15:52:00,83.8,56.9,29.98,East,95,0.0,9.0,40,0.00,,---,0.00,VWS V14.01,2013-04-07 19:52:00,
2013-04-07 15:54:00,83.8,56.9,29.98,East,95,0.0,9.0,40,0.00,,---,0.00,VWS V14.01,2013-04-07 19:54:00,
2013-04-07 15:55:00,83.6,56.0,29.98,East,95,0.0,9.0,39,0.00,,---,0.00,VWS V14.01,2013-04-07 19:55:00,
2013-04-07 15:57:00,83.6,56.0,29.98,East,95,0.0,9.0,39,0.00,,---,0.00,VWS V14.01,2013-04-07 19:57:00,
2013-04-07 15:58:00,83.6,57.4,29.98,East,92,4.0,9.0,41,0.00,,---,0.00,VWS V14.01,2013-04-07 19:58:00,
2013-04-07 15:59:00,83.6,55.3,29.98,East,92,0.0,9.0,38,0.00,,---,0.00,VWS V14.01,2013-04-07 19:59:00,
2013-04-07 16:01:00,83.4,55.2,29.98,East,92,0.0,9.0,38,0.00,,---,0.00,VWS V14.01,2013-04-07 20:01:00,
2013-04-07 16:05:00,83.4,54.4,29.98,East,86,0.0,9.0,37,0.00,,---,0.00,VWS V14.01,2013-04-07 20:05:00,
2013-04-07 16:07:00,83.4,54.4,29.98,East,86,0.0,9.0,37,0.00,,---,0.00,VWS V14.01,2013-04-07 20:07:00,
2013-04-07 16:12:00,84.1,57.2,29.98,East,79,1.0,9.0,40,0.00,,---,0.00,VWS V14.01,2013-04-07 20:12:00,
2013-04-07 16:13:00,84.0,58.5,29.98,East,79,0.0,9.0,42,0.00,,---,0.00,VWS V14.01,2013-04-07 20:13:00,
2013-04-07 16:15:00,84.0,58.5,29.98,East,79,0.0,9.0,42,0.00,,---,0.00,VWS V14.01,2013-04-07 20:15:00,
2013-04-07 16:18:00,84.0,58.5,29.98,East,79,0.0,9.0,42,0.00,,---,0.00,VWS V14.01,2013-04-07 20:18:00,
2013-04-07 16:22:00,82.6,59.1,29.98,East,79,0.0,9.0,45,0.00,,---,0.00,VWS V14.01,2013-04-07 20:22:00,
2013-04-07 16:25:00,82.6,59.1,29.98,East,79,0.0,9.0,45,0.00,,---,0.00,VWS V14.01,2013-04-07 20:25:00,
2013-04-07 16:26:00,81.8,58.4,29.98,East,79,0.0,9.0,45,0.00,,---,0.00,VWS V14.01,2013-04-07 20:26:00,
2013-04-07 16:28:00,81.6,58.2,29.98,East,79,1.0,9.0,45,0.00,,---,0.00,VWS V14.01,2013-04-07 20:28:00,
2013-04-07 16:35:00,81.4,58.0,29.98,East,82,0.0,9.0,45,0.00,,---,0.00,VWS V14.01,2013-04-07 20:35:00,
2013-04-07 16:36:00,81.8,59.0,29.98,East,86,0.0,9.0,46,0.00,,---,0.00,VWS V14.01,2013-04-07 20:36:00,
2013-04-07 16:37:00,82.0,58.6,29.98,East,87,0.0,9.0,45,0.00,,---,0.00,VWS V14.01,2013-04-07 20:37:00,
2013-04-07 16:40:00,82.4,59.0,29.98,East,87,0.0,9.0,45,0.00,,---,0.00,VWS V14.01,2013-04-07 20:40:00,
2013-04-07 16:41:00,82.4,58.3,29.98,East,87,0.0,9.0,44,0.00,,---,0.00,VWS V14.01,2013-04-07 20:41:00,
2013-04-07 16:43:00,82.2,58.8,29.98,East,92,0.0,9.0,45,0.00,,---,0.00,VWS V14.01,2013-04-07 20:43:00,
2013-04-07 16:44:00,82.2,58.8,29.98,East,92,0.0,9.0,45,0.00,,---,0.00,VWS V14.01,2013-04-07 20:44:00,
2013-04-07 16:45:00,82.0,59.2,29.98,East,92,0.0,9.0,46,0.00,,---,0.00,VWS V14.01,2013-04-07 20:45:00,
2013-04-07 16:49:00,81.6,58.8,29.97,East,93,0.0,9.0,46,0.00,,---,0.00,VWS V14.01,2013-04-07 20:49:00,
2013-04-07 16:50:00,81.4,59.3,29.97,East,93,0.0,9.0,47,0.00,,---,0.00,VWS V14.01,2013-04-07 20:50:00,
2013-04-07 16:55:00,81.6,58.8,29.97,ENE,59,0.0,9.0,46,0.00,,---,0.00,VWS V14.01,2013-04-07 20:55:00,
2013-04-07 16:56:00,81.8,59.6,29.97,ENE,59,0.0,9.0,47,0.00,,---,0.00,VWS V14.01,2013-04-07 20:56:00,
2013-04-07 16:57:00,81.8,59.0,29.97,ENE,59,0.0,9.0,46,0.00,,---,0.00,VWS V14.01,2013-04-07 20:57:00,
2013-04-07 16:59:00,82.0,59.2,29.97,ENE,62,0.0,9.0,46,0.00,,---,0.00,VWS V14.01,2013-04-07 20:59:00,
2013-04-07 17:01:00,82.4,59.6,29.97,ENE,63,0.0,9.0,46,0.00,,---,0.00,VWS V14.01,2013-04-07 21:01:00,
2013-04-07 17:02:00,82.4,59.6,29.97,ENE,63,0.0,9.0,46,0.00,,---,0.00,VWS V14.01,2013-04-07 21:02:00,
2013-04-07 17:05:00,82.4,59.6,29.97,ENE,63,0.0,9.0,46,0.00,,---,0.00,VWS V14.01,2013-04-07 21:05:00,
2013-04-07 17:07:00,83.4,59.2,29.97,ENE,63,1.0,9.0,44,0.00,,---,0.00,VWS V14.01,2013-04-07 21:07:00,
2013-04-07 17:10:00,83.2,57.8,29.97,ENE,58,0.0,9.0,42,0.00,,---,0.00,VWS V14.01,2013-04-07 21:10:00,
2013-04-07 17:12:00,82.2,57.5,29.97,NE,55,0.0,9.0,43,0.00,,---,0.00,VWS V14.01,2013-04-07 21:12:00,
2013-04-07 17:13:00,82.2,57.5,29.97,NE,55,0.0,9.0,43,0.00,,---,0.00,VWS V14.01,2013-04-07 21:13:00,
2013-04-07 17:14:00,82.0,58.6,29.97,ENE,58,3.0,9.0,45,0.00,,---,0.00,VWS V14.01,2013-04-07 21:14:00,
2013-04-07 17:19:00,81.6,58.2,29.97,ENE,58,0.0,9.0,45,0.00,,---,0.00,VWS V14.01,2013-04-07 21:19:00,
2013-04-07 17:21:00,81.4,58.7,29.97,NE,53,0.0,9.0,46,0.00,,---,0.00,VWS V14.01,2013-04-07 21:21:00,
2013-04-07 17:25:00,81.4,58.0,29.97,NE,53,0.0,9.0,45,0.00,,---,0.00,VWS V14.01,2013-04-07 21:25:00,
2013-04-07 17:26:00,81.6,58.2,29.97,NE,53,0.0,9.0,45,0.00,,---,0.00,VWS V14.01,2013-04-07 21:26:00,
2013-04-07 17:28:00,81.8,58.4,29.97,NE,53,0.0,9.0,45,0.00,,---,0.00,VWS V14.01,2013-04-07 21:28:00,
2013-04-07 17:35:00,82.4,59.0,29.97,NE,53,0.0,9.0,45,0.00,,---,0.00,VWS V14.01,2013-04-07 21:35:00,
2013-04-07 17:36:00,82.6,58.5,29.97,NE,53,0.0,9.0,44,0.00,,---,0.00,VWS V14.01,2013-04-07 21:36:00,
2013-04-07 17:40:00,82.6,58.5,29.97,NE,53,5.0,9.0,44,0.00,,---,0.00,VWS V14.01,2013-04-07 21:40:00,
2013-04-07 17:42:00,82.6,58.5,29.97,NE,53,5.0,9.0,44,0.00,,---,0.00,VWS V14.01,2013-04-07 21:42:00,
2013-04-07 17:45:00,82.4,58.3,29.97,NE,46,0.0,9.0,44,0.00,,---,0.00,VWS V14.01,2013-04-07 21:45:00,
2013-04-07 17:50:00,82.2,57.5,29.96,NE,46,0.0,9.0,43,0.00,,---,0.00,VWS V14.01,2013-04-07 21:50:00,
2013-04-07 17:51:00,82.2,58.1,29.96,NE,46,0.0,9.0,44,0.00,,---,0.00,VWS V14.01,2013-04-07 21:51:00,
2013-04-07 17:52:00,82.0,58.0,29.96,NE,46,0.0,9.0,44,0.00,,---,0.00,VWS V14.01,2013-04-07 21:52:00,
2013-04-07 17:53:00,82.0,58.0,29.96,NE,46,0.0,9.0,44,0.00,,---,0.00,VWS V14.01,2013-04-07 21:53:00,
2013-04-07 17:57:00,81.6,57.6,29.96,NE,46,0.0,9.0,44,0.00,,---,0.00,VWS V14.01,2013-04-07 21:57:00,
2013-04-07 18:03:00,81.6,58.2,29.96,NE,46,0.0,9.0,45,0.00,,---,0.00,VWS V14.01,2013-04-07 22:03:00,
2013-04-07 18:06:00,81.6,57.6,29.97,NE,46,0.0,0.0,44,0.00,,---,0.00,VWS V14.01,2013-04-07 22:06:00,
2013-04-07 18:13:00,81.4,58.0,29.97,NE,46,0.0,0.0,45,0.00,,---,0.00,VWS V14.01,2013-04-07 22:13:00,
2013-04-07 18:19:00,81.4,58.7,29.97,NE,39,0.0,0.0,46,0.00,,---,0.00,VWS V14.01,2013-04-07 22:19:00,
2013-04-07 18:21:00,81.1,58.4,29.96,NE,39,0.0,1.0,46,0.00,,---,0.00,VWS V14.01,2013-04-07 22:21:00,
2013-04-07 18:25:00,80.9,57.6,29.96,NE,38,0.0,1.0,45,0.00,,---,0.00,VWS V14.01,2013-04-07 22:25:00,
2013-04-07 18:27:00,80.5,57.8,29.96,NE,37,0.0,5.0,46,0.00,,---,0.00,VWS V14.01,2013-04-07 22:27:00,
2013-04-07 18:31:00,80.5,57.8,29.96,NE,37,0.0,5.0,46,0.00,,---,0.00,VWS V14.01,2013-04-07 22:31:00,
2013-04-07 18:34:00,80.1,58.1,29.96,NE,36,0.0,5.0,47,0.00,,---,0.00,VWS V14.01,2013-04-07 22:34:00,
2013-04-07 18:36:00,80.1,58.1,29.96,NE,36,0.0,5.0,47,0.00,,---,0.00,VWS V14.01,2013-04-07 22:36:00,
2013-04-07 18:39:00,79.9,58.5,29.96,NE,36,2.0,5.0,48,0.00,,---,0.00,VWS V14.01,2013-04-07 22:39:00,
2013-04-07 18:40:00,79.8,59.5,29.96,NE,36,0.0,5.0,50,0.00,,---,0.00,VWS V14.01,2013-04-07 22:40:00,
2013-04-07 18:44:00,79.8,59.5,29.96,NE,36,0.0,5.0,50,0.00,,---,0.00,VWS V14.01,2013-04-07 22:44:00,
2013-04-07 18:45:00,79.2,59.0,29.96,NE,37,0.0,5.0,50,0.00,,---,0.00,VWS V14.01,2013-04-07 22:45:00,
2013-04-07 18:49:00,78.6,60.1,29.97,NE,37,0.0,5.0,53,0.00,,---,0.00,VWS V14.01,2013-04-07 22:49:00,
2013-04-07 18:50:00,78.6,60.1,29.97,NE,37,0.0,5.0,53,0.00,,---,0.00,VWS V14.01,2013-04-07 22:50:00,
2013-04-07 18:53:00,78.1,60.1,29.97,NE,34,0.0,5.0,54,0.00,,---,0.00,VWS V14.01,2013-04-07 22:53:00,
2013-04-07 18:55:00,77.7,60.8,29.97,NE,34,0.0,5.0,56,0.00,,---,0.00,VWS V14.01,2013-04-07 22:55:00,
2013-04-07 18:57:00,77.6,61.2,29.97,NE,35,0.0,5.0,57,0.00,,---,0.00,VWS V14.01,2013-04-07 22:57:00,
2013-04-07 18:59:00,77.0,61.6,29.97,NNE,33,0.0,5.0,59,0.00,,---,0.00,VWS V14.01,2013-04-07 22:59:00,
2013-04-07 19:00:00,76.8,61.4,29.97,NE,34,0.0,5.0,59,0.00,,---,0.00,VWS V14.01,2013-04-07 23:00:00,
2013-04-07 19:05:00,76.8,61.4,29.97,NNE,33,0.0,5.0,59,0.00,,---,0.00,VWS V14.01,2013-04-07 23:05:00,
2013-04-07 19:10:00,76.1,62.6,29.97,NNE,33,0.0,5.0,63,0.00,,---,0.00,VWS V14.01,2013-04-07 23:10:00,
2013-04-07 19:16:00,75.8,62.3,29.97,NNE,33,0.0,5.0,63,0.00,,---,0.00,VWS V14.01,2013-04-07 23:16:00,
2013-04-07 19:17:00,75.3,61.8,29.97,NNE,32,0.0,5.0,63,0.00,,---,0.00,VWS V14.01,2013-04-07 23:17:00,
2013-04-07 19:22:00,75.1,62.1,29.97,NNE,32,1.0,5.0,64,0.00,,---,0.00,VWS V14.01,2013-04-07 23:22:00,
2013-04-07 19:23:00,74.9,61.9,29.97,NNE,32,0.0,5.0,64,0.00,,---,0.00,VWS V14.01,2013-04-07 23:23:00,
2013-04-07 19:25:00,74.6,62.1,29.97,NNE,32,0.0,5.0,65,0.00,,---,0.00,VWS V14.01,2013-04-07 23:25:00,
2013-04-07 19:26:00,74.6,62.1,29.97,NNE,32,0.0,5.0,65,0.00,,---,0.00,VWS V14.01,2013-04-07 23:26:00,
2013-04-07 19:29:00,74.4,61.9,29.97,NNE,32,0.0,5.0,65,0.00,,---,0.00,VWS V14.01,2013-04-07 23:29:00,
2013-04-07 19:32:00,74.2,61.7,29.97,NNE,32,0.0,5.0,65,0.00,,---,0.00,VWS V14.01,2013-04-07 23:32:00,
2013-04-07 19:34:00,74.0,61.9,29.97,NNE,32,0.0,5.0,66,0.00,,---,0.00,VWS V14.01,2013-04-07 23:34:00,
2013-04-07 19:37:00,74.0,61.9,29.97,NNE,32,2.0,5.0,66,0.00,,---,0.00,VWS V14.01,2013-04-07 23:37:00,
2013-04-07 19:40:00,73.7,62.1,29.97,NNE,32,0.0,5.0,67,0.00,,---,0.00,VWS V14.01,2013-04-07 23:40:00,
2013-04-07 19:43:00,73.3,61.3,29.97,NNE,32,0.0,5.0,66,0.00,,---,0.00,VWS V14.01,2013-04-07 23:43:00,
2013-04-07 19:46:00,73.3,61.3,29.97,NNE,32,0.0,5.0,66,0.00,,---,0.00,VWS V14.01,2013-04-07 23:46:00,
2013-04-07 19:52:00,72.8,60.8,29.97,NNE,32,0.0,5.0,66,0.00,,---,0.00,VWS V14.01,2013-04-07 23:52:00,
2013-04-07 19:53:00,72.8,60.8,29.97,NNE,32,0.0,5.0,66,0.00,,---,0.00,VWS V14.01,2013-04-07 23:53:00,
2013-04-07 19:55:00,72.8,60.8,29.97,NNE,32,0.0,5.0,66,0.00,,---,0.00,VWS V14.01,2013-04-07 23:55:00,
2013-04-07 19:57:00,72.7,60.7,29.97,NNE,32,0.0,5.0,66,0.00,,---,0.00,VWS V14.01,2013-04-07 23:57:00,
2013-04-07 19:59:00,72.5,60.5,29.97,NNE,32,0.0,5.0,66,0.00,,---,0.00,VWS V14.01,2013-04-07 23:59:00,
2013-04-07 20:01:00,72.5,60.5,29.97,NNE,32,0.0,5.0,66,0.00,,---,0.00,VWS V14.01,2013-04-08 00:01:00,
2013-04-07 20:04:00,72.3,60.3,29.97,NNE,32,0.0,5.0,66,0.00,,---,0.00,VWS V14.01,2013-04-08 00:04:00,
2013-04-07 20:08:00,72.1,60.1,29.97,NNE,32,0.0,5.0,66,0.00,,---,0.00,VWS V14.01,2013-04-08 00:08:00,
2013-04-07 20:09:00,72.1,60.1,29.97,NNE,32,0.0,5.0,66,0.00,,---,0.00,VWS V14.01,2013-04-08 00:09:00,
2013-04-07 20:10:00,72.0,60.0,29.97,NNE,32,0.0,5.0,66,0.00,,---,0.00,VWS V14.01,2013-04-08 00:10:00,
2013-04-07 20:17:00,72.0,60.0,29.97,NNE,32,0.0,5.0,66,0.00,,---,0.00,VWS V14.01,2013-04-08 00:17:00,
2013-04-07 20:22:00,71.8,60.3,29.97,NNE,32,0.0,5.0,67,0.00,,---,0.00,VWS V14.01,2013-04-08 00:22:00,
2013-04-07 20:25:00,71.6,60.1,29.97,NNE,32,0.0,5.0,67,0.00,,---,0.00,VWS V14.01,2013-04-08 00:25:00,
2013-04-07 20:27:00,71.6,60.1,29.97,NNE,32,0.0,5.0,67,0.00,,---,0.00,VWS V14.01,2013-04-08 00:27:00,
2013-04-07 20:28:00,71.6,60.1,29.97,NNE,32,0.0,5.0,67,0.00,,---,0.00,VWS V14.01,2013-04-08 00:28:00,
2013-04-07 20:29:00,71.6,60.1,29.97,NNE,32,0.0,5.0,67,0.00,,---,0.00,VWS V14.01,2013-04-08 00:29:00,
2013-04-07 20:32:00,71.5,60.0,29.97,NNE,32,0.0,5.0,67,0.00,,---,0.00,VWS V14.01,2013-04-08 00:32:00,
2013-04-07 20:33:00,71.5,60.0,29.97,NNE,32,0.0,5.0,67,0.00,,---,0.00,VWS V14.01,2013-04-08 00:33:00,
2013-04-07 20:34:00,71.3,59.8,29.98,NNE,32,0.0,5.0,67,0.00,,---,0.00,VWS V14.01,2013-04-08 00:34:00,
2013-04-07 20:38:00,71.3,59.8,29.98,NNE,32,0.0,5.0,67,0.00,,---,0.00,VWS V14.01,2013-04-08 00:38:00,
2013-04-07 20:39:00,71.1,59.6,29.98,NNE,32,0.0,5.0,67,0.00,,---,0.00,VWS V14.01,2013-04-08 00:39:00,
2013-04-07 20:43:00,71.1,59.6,29.98,NNE,32,0.0,5.0,67,0.00,,---,0.00,VWS V14.01,2013-04-08 00:43:00,
2013-04-07 20:45:00,70.9,59.4,29.98,NNE,32,0.0,5.0,67,0.00,,---,0.00,VWS V14.01,2013-04-08 00:45:00,
2013-04-07 20:47:00,70.9,59.4,29.98,NNE,32,0.0,5.0,67,0.00,,---,0.00,VWS V14.01,2013-04-08 00:47:00,
2013-04-07 20:49:00,70.8,59.3,29.98,NNE,32,0.0,5.0,67,0.00,,---,0.00,VWS V14.01,2013-04-08 00:49:00,
2013-04-07 20:51:00,70.8,59.3,29.98,NNE,32,0.0,5.0,67,0.00,,---,0.00,VWS V14.01,2013-04-08 00:51:00,
2013-04-07 20:55:00,70.6,59.1,29.98,NNE,32,0.0,5.0,67,0.00,,---,0.00,VWS V14.01,2013-04-08 00:55:00,
2013-04-07 20:56:00,70.6,58.7,29.98,NNE,32,0.0,5.0,66,0.00,,---,0.00,VWS V14.01,2013-04-08 00:56:00,
2013-04-07 20:57:00,70.6,58.7,29.98,NNE,32,0.0,5.0,66,0.00,,---,0.00,VWS V14.01,2013-04-08 00:57:00,
2013-04-07 21:04:00,70.4,58.5,29.99,NNE,32,0.0,5.0,66,0.00,,---,0.00,VWS V14.01,2013-04-08 01:04:00,
2013-04-07 21:05:00,70.4,58.5,29.99,NNE,32,0.0,0.0,66,0.00,,---,0.00,VWS V14.01,2013-04-08 01:05:00,
2013-04-07 21:07:00,70.3,58.4,29.99,NNE,32,0.0,0.0,66,0.00,,---,0.00,VWS V14.01,2013-04-08 01:07:00,
2013-04-07 21:15:00,70.3,58.8,29.99,NNE,32,0.0,0.0,67,0.00,,---,0.00,VWS V14.01,2013-04-08 01:15:00,
2013-04-07 21:18:00,70.1,59.1,29.99,NNE,32,0.0,0.0,68,0.00,,---,0.00,VWS V14.01,2013-04-08 01:18:00,
2013-04-07 21:20:00,69.9,58.9,29.99,NNE,32,0.0,0.0,68,0.00,,---,0.00,VWS V14.01,2013-04-08 01:20:00,
2013-04-07 21:23:00,69.9,58.9,29.99,NNE,32,0.0,0.0,68,0.00,,---,0.00,VWS V14.01,2013-04-08 01:23:00,
2013-04-07 21:25:00,69.9,59.3,29.99,NNE,32,0.0,0.0,69,0.00,,---,0.00,VWS V14.01,2013-04-08 01:25:00,
2013-04-07 21:30:00,69.6,59.0,29.99,NNE,32,0.0,0.0,69,0.00,,---,0.00,VWS V14.01,2013-04-08 01:30:00,
2013-04-07 21:32:00,69.6,59.0,29.99,NNE,32,0.0,0.0,69,0.00,,---,0.00,VWS V14.01,2013-04-08 01:32:00,
2013-04-07 21:35:00,69.4,59.2,30.00,NNE,32,0.0,0.0,70,0.00,,---,0.00,VWS V14.01,2013-04-08 01:35:00,
2013-04-07 21:36:00,69.3,59.1,30.00,NNE,32,0.0,0.0,70,0.00,,---,0.00,VWS V14.01,2013-04-08 01:36:00,
2013-04-07 21:44:00,68.8,59.0,30.00,NNE,32,0.0,0.0,71,0.00,,---,0.00,VWS V14.01,2013-04-08 01:44:00,
2013-04-07 21:45:00,68.8,59.0,30.00,NNE,32,0.0,0.0,71,0.00,,---,0.00,VWS V14.01,2013-04-08 01:45:00,
2013-04-07 21:47:00,68.8,59.0,30.00,NNE,32,0.0,0.0,71,0.00,,---,0.00,VWS V14.01,2013-04-08 01:47:00,
2013-04-07 21:52:00,68.9,59.5,30.00,NNE,32,0.0,0.0,72,0.00,,---,0.00,VWS V14.01,2013-04-08 01:52:00,
2013-04-07 21:53:00,68.9,59.5,30.00,NNE,32,0.0,0.0,72,0.00,,---,0.00,VWS V14.01,2013-04-08 01:53:00,
2013-04-07 21:55:00,68.9,59.5,30.00,NNE,32,0.0,0.0,72,0.00,,---,0.00,VWS V14.01,2013-04-08 01:55:00,
2013-04-07 21:58:00,69.1,59.7,30.00,NNE,32,0.0,0.0,72,0.00,,---,0.00,VWS V14.01,2013-04-08 01:58:00,
2013-04-07 21:59:00,69.1,59.7,30.00,NNE,32,0.0,0.0,72,0.00,,---,0.00,VWS V14.01,2013-04-08 01:59:00,
2013-04-07 22:02:00,69.3,59.9,30.00,NNE,32,0.0,0.0,72,0.00,,---,0.00,VWS V14.01,2013-04-08 02:02:00,
2013-04-07 22:04:00,69.3,59.9,30.00,NNE,32,0.0,0.0,72,0.00,,---,0.00,VWS V14.01,2013-04-08 02:04:00,
2013-04-07 22:10:00,69.9,60.1,30.00,NNE,32,0.0,4.0,71,0.00,,---,0.00,VWS V14.01,2013-04-08 02:10:00,
2013-04-07 22:11:00,70.1,59.9,30.00,NNE,32,0.0,4.0,70,0.00,,---,0.00,VWS V14.01,2013-04-08 02:11:00,
2013-04-07 22:12:00,70.1,59.9,30.00,NNE,32,0.0,4.0,70,0.00,,---,0.00,VWS V14.01,2013-04-08 02:12:00,
2013-04-07 22:13:00,70.1,59.9,30.00,NNE,32,0.0,4.0,70,0.00,,---,0.00,VWS V14.01,2013-04-08 02:13:00,
2013-04-07 22:17:00,70.1,60.3,30.00,NNE,32,0.0,4.0,71,0.00,,---,0.00,VWS V14.01,2013-04-08 02:17:00,
2013-04-07 22:19:00,70.1,60.3,30.01,NNE,32,0.0,4.0,71,0.00,,---,0.00,VWS V14.01,2013-04-08 02:19:00,
2013-04-07 22:20:00,70.1,60.3,30.01,NNE,32,0.0,4.0,71,0.00,,---,0.00,VWS V14.01,2013-04-08 02:20:00,
2013-04-07 22:22:00,69.9,60.1,30.01,NNE,32,0.0,4.0,71,0.00,,---,0.00,VWS V14.01,2013-04-08 02:22:00,
2013-04-07 22:24:00,69.9,60.1,30.01,NNE,32,0.0,4.0,71,0.00,,---,0.00,VWS V14.01,2013-04-08 02:24:00,
2013-04-07 22:27:00,69.9,60.1,30.01,NNE,32,0.0,4.0,71,0.00,,---,0.00,VWS V14.01,2013-04-08 02:27:00,
2013-04-07 22:28:00,69.9,60.1,30.01,NNE,32,0.0,4.0,71,0.00,,---,0.00,VWS V14.01,2013-04-08 02:28:00,
2013-04-07 22:32:00,69.8,60.4,30.01,NNE,32,0.0,4.0,72,0.00,,---,0.00,VWS V14.01,2013-04-08 02:32:00,
2013-04-07 22:33:00,69.8,60.4,30.01,NNE,32,0.0,4.0,72,0.00,,---,0.00,VWS V14.01,2013-04-08 02:33:00,
2013-04-07 22:38:00,69.6,60.2,30.01,NNE,32,0.0,4.0,72,0.00,,---,0.00,VWS V14.01,2013-04-08 02:38:00,
2013-04-07 22:39:00,69.6,60.2,30.01,NNE,32,0.0,4.0,72,0.00,,---,0.00,VWS V14.01,2013-04-08 02:39:00,
2013-04-07 22:40:00,69.6,60.2,30.01,NNE,32,0.0,4.0,72,0.00,,---,0.00,VWS V14.01,2013-04-08 02:40:00,
2013-04-07 22:45:00,69.6,60.6,30.01,NNE,32,0.0,4.0,73,0.00,,---,0.00,VWS V14.01,2013-04-08 02:45:00,
2013-04-07 22:49:00,69.6,60.6,30.01,NNE,32,0.0,4.0,73,0.00,,---,0.00,VWS V14.01,2013-04-08 02:49:00,
2013-04-07 22:53:00,69.4,60.4,30.01,NNE,32,0.0,4.0,73,0.00,,---,0.00,VWS V14.01,2013-04-08 02:53:00,
2013-04-07 22:54:00,69.4,60.4,30.01,NNE,32,0.0,4.0,73,0.00,,---,0.00,VWS V14.01,2013-04-08 02:54:00,
2013-04-07 22:58:00,69.4,60.4,30.01,NNE,32,0.0,4.0,73,0.00,,---,0.00,VWS V14.01,2013-04-08 02:58:00,
2013-04-07 23:01:00,69.6,61.0,30.01,NNE,32,0.0,4.0,74,0.00,,---,0.00,VWS V14.01,2013-04-08 03:01:00,
2013-04-07 23:03:00,69.6,61.0,30.01,NNE,32,0.0,4.0,74,0.00,,---,0.00,VWS V14.01,2013-04-08 03:03:00,
2013-04-07 23:08:00,69.8,61.2,30.01,NNE,32,0.0,0.0,74,0.00,,---,0.00,VWS V14.01,2013-04-08 03:08:00,
2013-04-07 23:12:00,70.1,61.0,30.01,NE,46,0.0,0.0,73,0.00,,---,0.00,VWS V14.01,2013-04-08 03:12:00,
2013-04-07 23:13:00,70.3,61.2,30.01,NE,46,0.0,0.0,73,0.00,,---,0.00,VWS V14.01,2013-04-08 03:13:00,
2013-04-07 23:15:00,70.3,61.2,30.01,NE,46,0.0,0.0,73,0.00,,---,0.00,VWS V14.01,2013-04-08 03:15:00,
2013-04-07 23:20:00,70.4,61.3,30.01,NE,46,0.0,0.0,73,0.00,,---,0.00,VWS V14.01,2013-04-08 03:20:00,
2013-04-07 23:29:00,70.9,61.4,30.01,NE,39,1.0,4.0,72,0.00,,---,0.00,VWS V14.01,2013-04-08 03:29:00,
2013-04-07 23:30:00,70.9,61.0,30.01,NE,46,0.0,4.0,71,0.00,,---,0.00,VWS V14.01,2013-04-08 03:30:00,
2013-04-07 23:35:00,70.9,61.0,30.01,NE,47,0.0,4.0,71,0.00,,---,0.00,VWS V14.01,2013-04-08 03:35:00,
2013-04-07 23:37:00,70.9,61.0,30.01,NE,47,0.0,4.0,71,0.00,,---,0.00,VWS V14.01,2013-04-08 03:37:00,
2013-04-07 23:42:00,71.1,60.8,30.01,East,79,0.0,4.0,70,0.00,,---,0.00,VWS V14.01,2013-04-08 03:42:00,
2013-04-07 23:43:00,71.1,61.2,30.01,East,79,0.0,4.0,71,0.00,,---,0.00,VWS V14.01,2013-04-08 03:43:00,
2013-04-07 23:46:00,70.9,61.0,30.01,East,79,0.0,4.0,71,0.00,,---,0.00,VWS V14.01,2013-04-08 03:46:00,
2013-04-07 23:49:00,70.9,61.0,30.01,ENE,77,5.0,5.0,71,0.00,,---,0.00,VWS V14.01,2013-04-08 03:49:00,
2013-04-07 23:52:00,70.9,61.0,30.01,ENE,77,0.0,5.0,71,0.00,,---,0.00,VWS V14.01,2013-04-08 03:52:00,
2013-04-07 23:57:00,70.8,60.9,30.01,ENE,66,0.0,5.0,71,0.00,,---,0.00,VWS V14.01,2013-04-08 03:57:00,